This is the latest recevied weather packets stored in our database for station/object WC4PEM-11. If no packets are shown the sender has not sent any weather packets the latest 10 day(s).
| Time | Temp. | Humidity | Pressure | Rain* | Wind** | Luminosity | Snow |
|---|---|---|---|---|---|---|---|
| 1777685294 | 23.89° C | 81% | 1011.4 hPa | 0 mm | - | - | - |
| 1777684994 | 23.89° C | 81% | 1011.5 hPa | 0 mm | - | - | - |
| 1777684694 | 23.89° C | 80% | 1011.4 hPa | 0 mm | - | - | - |
| 1777684394 | 24.44° C | 80% | 1011.3 hPa | 0 mm | - | - | - |
| 1777684094 | 24.44° C | 79% | 1011.3 hPa | 0 mm | - | - | - |
| 1777683794 | 24.44° C | 78% | 1011.3 hPa | 0 mm | - | - | - |
| 1777683494 | 25° C | 78% | 1011.3 hPa | 0 mm | - | - | - |
| 1777683355 | 25° C | 77% | 1011.1 hPa | 0 mm | - | - | - |
| 1777683194 | 25° C | 77% | 1011.1 hPa | 0 mm | - | - | - |
| 1777682894 | 25° C | 77% | 1011.1 hPa | 0 mm | - | - | - |
| 1777682594 | 25° C | 77% | 1011 hPa | 0 mm | - | - | - |
| 1777682294 | 25.56° C | 76% | 1011 hPa | 0 mm | - | - | - |
| 1777681994 | 25.56° C | 75% | 1011 hPa | 0 mm | - | - | - |
| 1777681694 | 25.56° C | 75% | 1010.8 hPa | 0 mm | - | - | - |
| 1777681394 | 26.11° C | 74% | 1010.7 hPa | 0 mm | - | - | - |
| 1777681094 | 26.11° C | 73% | 1010.6 hPa | 0 mm | - | - | - |
| 1777680794 | 26.67° C | 73% | 1010.5 hPa | 0 mm | - | - | - |
| 1777680494 | 26.67° C | 72% | 1010.4 hPa | 0 mm | - | - | - |
| 1777680194 | 27.22° C | 71% | 1010.4 hPa | 0 mm | - | - | - |
| 1777679944 | 27.78° C | 65% | 1010.3 hPa | 0 mm | - | - | - |
| 1777679894 | 27.22° C | 69% | 1010.4 hPa | 0 mm | - | - | - |
| 1777679594 | 27.22° C | 67% | 1010.3 hPa | 0 mm | - | - | - |
| 1777679294 | 27.78° C | 65% | 1010.3 hPa | 0 mm | - | - | - |
| 1777678994 | 27.78° C | 64% | 1010.1 hPa | 0 mm | - | - | - |
| 1777678694 | 27.78° C | 64% | 1010 hPa | 0 mm | - | - | - |
* Rain latest hour (hover to see other rain measurements)
** Current wind speed in m/s (hover to see current wind gust speed)